"2009-03-10 00:00:30",697301,11.24,122.9,3.65,0.912,1.947,98.71319,-3.978,-2.499,75.26,0,109.5,13.56,-3.24,84.9
"2009-03-10 00:01:00",697302,10.99,126.3,3.319,0.732,2.126,98.69439,-4.026,-2.515,75.24,0,109.5,13.57,-3.29,88.3
"2009-03-10 00:01:30",697303,10.78,128.8,4.044,0.757,2.023,98.67571,-4.074,-2.552,75.29,0,109.5,13.57,-3.34,90.8
"2009-03-10 00:02:00",697304,10.01,131.4,3.149,0.812,2.16,98.65336,-4.131,-2.577,75.38,0,109.5,13.57,-3.39,93.4
"2009-03-10 00:02:30",697305,10.22,129.9,4.467,0.932,2.037,98.64201,-4.16,-2.623,75.58,0,109.5,13.57,-3.42,91.9
"2009-03-10 00:03:00",697306,11.13,128.7,2.67,0.617,1.984,98.62074,-4.214,-2.655,75.71,0,109.5,13.57,-3.48,90.7
"2009-03-10 00:03:30",697307,11.13,126.6,3.016,0.821,1.677,98.60799,-4.246,-2.708,75.76,0,109.5,13.57,-3.51,88.6
"2009-03-10 00:04:00",697308,10.64,126.4,4.233,0.761,1.863,98.58697,-4.3,-2.716,75.76,0,109.5,13.57,-3.56,88.4
"2009-03-10 00:04:30",697309,10.49,130.1,3.545,0.697,1.942,98.56628,-4.353,-2.789,75.86,0,109.5,13.57,-3.62,92.1
"2009-03-10 00:05:00",697310,11.17,131.1,3.492,0.899,1.582,98.55322,-4.386,-2.836,75.98,0,109.5,13.57,-3.65,93.1
"2009-03-10 00:05:30",697311,11.84,129.6,3.017,0.97,1.328,98.52856,-4.449,-2.868,76.03,0,109.5,13.57,-3.71,91.6
"2009-03-10 00:06:00",697312,12.65,127.7,3.342,0.922,1.278,98.49937,-4.523,-2.935,75.81,0,109.5,13.57,-3.79,89.7
"2009-03-10 00:06:30",697313,12.74,125.4,4.961,1.129,1.234,98.46538,-4.61,-3.002,75.53,0,109.5,13.57,-3.87,87.4
"2009-03-10 00:07:00",697314,12.1,126,4.079,0.716,1.766,98.42771,-4.705,-3.066,75.4,0,109.5,13.57,-3.97,88.0
"2009-03-10 00:07:30",697315,11.45,128.1,3.509,0.943,1.615,98.39146,-4.798,-3.141,75.51,0,109.5,13.57,-4.06,90.1
"2009-03-10 00:08:00",697316,10.97,135.1,2.979,0.655,2.08,98.36256,-4.871,-3.207,75.78,0,109.5,13.57,-4.14,97.1
"2009-03-10 00:08:30",697317,10.43,134.2,3.389,0.734,2.331,98.33732,-4.936,-3.266,76.33,0,109.5,13.57,-4.20,96.2
"2009-03-10 00:09:00",697318,10.2,132.6,2.729,0.688,2.295,98.32795,-4.959,-3.352,76.96,0,109.5,13.57,-4.22,94.6
"2009-03-10 00:09:30",697319,10.37,131.8,2.669,0.792,2.064,98.30531,-5.017,-3.393,77.48,0,109.5,13.57,-4.28,93.8
"2009-03-10 00:10:00",697320,10.33,131.9,3.204,0.72,2.04,98.30135,-5.027,-3.429,77.91,0,109.5,13.58,-4.29,93.9
"2009-03-10 00:10:30",697321,10.53,130.2,3.344,0.734,1.714,98.29398,-5.046,-3.485,78.29,0,109.5,13.58,-4.31,92.2
"2009-03-10 00:11:00",697322,11.13,128.5,3.729,0.776,1.844,98.27672,-5.09,-3.505,78.58,0,109.5,13.59,-4.36,90.5
"2009-03-10 00:11:30",697323,11.08,126.4,3.35,0.811,1.698,98.26766,-5.113,-3.551,78.84,0,109.5,13.59,-4.38,88.4
"2009-03-10 00:12:00",697324,11.17,123.3,3.116,0.814,1.682,98.26567,-5.118,-3.58,79.04,0,109.5,13.59,-4.38,85.3
"2009-03-10 00:12:30",697325,11.12,121.6,3.005,0.78,1.748,98.24105,-5.181,-3.613,79.24,0,109.4,13.59,-4.45,83.6
"2009-03-10 00:13:00",697326,11.18,119.7,1.971,0.763,1.95,98.23369,-5.199,-3.664,79.5,0,109.4,13.59,-4.47,81.7
"2009-03-10 00:13:30",697327,10.8,119.1,3.881,0.753,1.994,98.23369,-5.199,-3.679,79.74,0,109.4,13.59,-4.47,81.1
"2009-03-10 00:14:00",697328,10.78,119.4,3.163,0.73,1.83,98.23369,-5.199,-3.671,80,0,109.4,13.59,-4.47,81.4
"2009-03-10 00:14:30",697329,10.91,120.2,2.816,0.809,1.577,98.23115,-5.206,-3.729,80.2,0,109.5,13.59,-4.47,82.2
"2009-03-10 00:15:00",697330,10.95,120.5,2.678,0.703,1.645,98.22094,-5.232,-3.734,80.4,0,109.5,13.59,-4.50,82.5
"2009-03-10 00:15:30",697331,11.02,119.3,2.815,0.813,1.397,98.21834,-5.239,-3.76,80.5,0,109.4,13.59,-4.50,81.3
"2009-03-10 00:16:00",697332,11.05,118.7,3.075,0.808,1.394,98.20699,-5.267,-3.767,80.6,0,109.4,13.6,-4.53,80.7
"2009-03-10 00:16:30",697333,10.85,121.6,2.885,0.718,1.378,98.20946,-5.261,-3.797,80.7,0,109.4,13.6,-4.53,83.6
"2009-03-10 00:17:00",697334,11.04,121.5,3.089,0.596,1.218,98.20063,-5.284,-3.827,80.8,0,109.4,13.6,-4.55,83.5
"2009-03-10 00:17:30",697335,10.31,120.9,2.29,0.795,1.691,98.18501,-5.323,-3.836,80.9,0,109.4,13.6,-4.59,82.9
"2009-03-10 00:18:00",697336,10.1,121.2,3.398,0.736,2.091,98.18215,-5.331,-3.85,81.1,0,109.4,13.6,-4.60,83.2
"2009-03-10 00:18:30",697337,9.89,122.2,3.242,0.733,2.019,98.18243,-5.33,-3.875,81.3,0,109.4,13.6,-4.60,84.2
"2009-03-10 00:19:00",697338,9.66,122.2,2.055,0.717,1.951,98.18577,-5.321,-3.892,81.5,0,109.4,13.6,-4.59,84.2
"2009-03-10 00:19:30",697339,9.57,120.8,2.91,0.744,1.75,98.18743,-5.317,-3.908,81.8,0,109.4,13.6,-4.58,82.8
"2009-03-10 00:20:00",697340,9.94,118.2,3.008,0.8,1.238,98.1905,-5.309,-3.914,82,0,109.4,13.6,-4.58,80.2
"2009-03-10 00:20:30",697341,10.48,116.5,2.866,0.796,1.107,98.19077,-5.309,-3.912,82.2,0,109.4,13.6,-4.58,78.5
"2009-03-10 00:21:00",697342,10.77,117.2,3.213,0.564,1.155,98.19077,-5.309,-3.908,82.2,0,109.4,13.6,-4.58,79.2
"2009-03-10 00:21:30",697343,10.87,114.1,3.309,0.81,1.223,98.19408,-5.3,-3.914,82.3,0,109.4,13.6,-4.57,76.1
"2009-03-10 00:22:00",697344,11.52,118,3.435,0.736,0.743,98.18107,-5.333,-3.927,82.3,0,109.4,13.6,-4.60,80.0
"2009-03-10 00:22:30",697345,11.57,119.7,3.511,0.765,0.625,98.16574,-5.372,-3.94,82.2,0,109.4,13.6,-4.64,81.7
"2009-03-10 00:23:00",697346,12.1,117.1,3.35,0.539,0.947,98.14787,-5.418,-3.978,82,0,109.4,13.6,-4.68,79.1
"2009-03-10 00:23:30",697347,11.92,118,3.232,0.648,0.781,98.12747,-5.47,-4.016,81.9,0,109.4,13.6,-4.74,80.0
"2009-03-10 00:24:00",697348,11.48,117,3.163,0.922,0.969,98.1003,-5.539,-4.035,81.7,0,109.4,13.6,-4.81,79.0
"2009-03-10 00:24:30",697349,11.29,117.7,3.251,0.698,0.992,98.07169,-5.612,-4.088,81.5,0,109.4,13.6,-4.88,79.7
"2009-03-10 00:25:00",697350,10.77,120.1,3.464,0.74,1.732,98.04592,-5.677,-4.113,81.4,0,109.4,13.6,-4.95,82.1
"2009-03-10 00:25:30",697351,9.88,122.1,3.504,0.742,1.935,98.02921,-5.72,-4.157,81.6,0,109.4,13.6,-4.99,84.1
"2009-03-10 00:26:00",697352,10.04,120.7,3.676,0.737,1.637,98.02383,-5.734,-4.202,81.9,0,109.4,13.61,-5.00,82.7
"2009-03-10 00:26:30",697353,10.15,119.4,2.818,0.715,1.295,98.00514,-5.781,-4.238,82.2,0,109.4,13.61,-5.05,81.4
"2009-03-10 00:27:00",697354,10.64,120.4,2.254,0.787,1.277,97.99524,-5.806,-4.266,82.5,0,109.4,13.62,-5.07,82.4
"2009-03-10 00:27:30",697355,10.8,119.6,3.863,0.753,0.769,97.99465,-5.808,-4.296,82.7,0,109.4,13.62,-5.08,81.6
"2009-03-10 00:28:00",697356,11.11,120.4,4.093,0.697,0.724,97.97734,-5.852,-4.31,82.8,0,109.4,13.62,-5.12,82.4
"2009-03-10 00:28:30",697357,10.95,121.1,3.554,0.85,0.798,97.96785,-5.876,-4.361,82.8,0,109.4,13.62,-5.14,83.1
"2009-03-10 00:29:00",697358,11.4,119.9,2.642,0.709,0.943,97.94458,-5.935,-4.396,82.7,0,109.4,13.62,-5.20,81.9
"2009-03-10 00:29:30",697359,11.32,116.2,3.371,0.715,1.026,97.93348,-5.964,-4.434,82.7,0,109.4,13.62,-5.23,78.2
"2009-03-10 00:30:00",697360,11.01,115.3,3.097,0.79,1.021,97.91248,-6.017,-4.468,82.7,0,109.3,13.62,-5.29,77.3
"2009-03-10 00:30:30",697361,10.84,115.9,3.439,0.758,0.933,97.88778,-6.08,-4.51,82.7,0,109.3,13.63,-5.35,77.9
"2009-03-10 00:31:00",697362,10.81,118.5,4.469,0.634,1.034,97.8758,-6.11,-4.558,82.7,0,109.3,13.63,-5.38,80.5
"2009-03-10 00:31:30",697363,10.49,120.6,3.938,0.813,0.783,97.85167,-6.172,-4.607,82.7,0,109.3,13.63,-5.44,82.6
"2009-03-10 00:32:00",697364,10.59,116.7,3.052,0.901,0.856,97.83043,-6.226,-4.648,82.7,0,109.3,13.63,-5.50,78.7
"2009-03-10 00:32:30",697365,10.36,119.8,3.335,0.843,0.69,97.81734,-6.259,-4.71,82.8,0,109.3,13.63,-5.53,81.8
"2009-03-10 00:33:00",697366,10.51,116.6,2.828,0.646,0.94,97.79517,-6.316,-4.754,82.9,0,109.3,13.63,-5.59,78.6
"2009-03-10 00:33:30",697367,10.92,116,2.925,0.715,0.544,97.78495,-6.342,-4.801,83,0,109.3,13.63,-5.61,78.0
"2009-03-10 00:34:00",697368,10.76,117.3,3.018,0.735,0.529,97.76003,-6.405,-4.809,83.1,0,109.3,13.64,-5.68,79.3
"2009-03-10 00:34:30",697369,10.55,121.5,2.69,0.758,0.527,97.74784,-6.436,-4.868,83.2,0,109.3,13.64,-5.71,83.5
"2009-03-10 00:35:00",697370,10.4,119.8,3.395,0.651,0.637,97.7266,-6.49,-4.908,83.3,0,109.3,13.64,-5.76,81.8
"2009-03-10 00:35:30",697371,10.95,119.6,2.999,0.683,0.547,97.71216,-6.527,-4.95,83.5,0,109.3,13.64,-5.80,81.6
"2009-03-10 00:36:00",697372,10.87,117.8,3.41,0.588,0.542,97.68893,-6.586,-4.981,83.6,0,109.3,13.64,-5.86,79.8
"2009-03-10 00:36:30",697373,10.54,118.1,3.466,0.77,0.558,97.67731,-6.616,-5.043,83.8,0,109.3,13.64,-5.89,80.1
"2009-03-10 00:37:00",697374,10.85,116.3,2.855,0.643,0.658,97.65522,-6.672,-5.07,83.9,0,109.3,13.64,-5.94,78.3
"2009-03-10 00:37:30",697375,10.34,113.7,4.226,0.696,0.65,97.64729,-6.692,-5.117,84.1,0,109.3,13.64,-5.96,75.7
"2009-03-10 00:38:00",697376,10.76,116.9,3.839,0.584,0.563,97.62151,-6.758,-5.144,84.2,0,109.3,13.64,-6.03,78.9
"2009-03-10 00:38:30",697377,10.64,116.5,3.831,0.9,0.557,97.62563,-6.747,-5.199,84.3,0,109.3,13.64,-6.02,78.5
"2009-03-10 00:39:00",697378,10.82,116.6,3.051,0.505,0.635,97.6158,-6.772,-5.237,84.5,0,109.3,13.64,-6.04,78.6
"2009-03-10 00:39:30",697379,11.14,115.3,3.695,0.856,0.6,97.60105,-6.81,-5.239,84.6,0,109.3,13.64,-6.08,77.3
"2009-03-10 00:40:00",697380,10.64,117.2,3.958,0.822,0.51,97.60432,-6.801,-5.282,84.7,0,109.3,13.64,-6.07,79.2
"2009-03-10 00:40:30",697381,10.31,120,5.134,0.917,0.46,97.58334,-6.855,-5.327,84.8,0,109.3,13.64,-6.13,82.0
"2009-03-10 00:41:00",697382,10.31,123.3,3.351,0.844,0.553,97.57617,-6.873,-5.374,85,0,109.3,13.65,-6.15,85.3
"2009-03-10 00:41:30",697383,10.86,122.7,2.984,0.779,0.34,97.57947,-6.865,-5.382,85.1,0,109.3,13.65,-6.14,84.7
"2009-03-10 00:42:00",697384,10.11,124.1,3.616,0.791,0.353,97.56186,-6.909,-5.401,85.3,0,109.3,13.65,-6.18,86.1
"2009-03-10 00:42:30",697385,10.56,124.1,3.499,0.705,0.333,97.54716,-6.947,-5.442,85.4,0,109.3,13.65,-6.22,86.1
"2009-03-10 00:43:00",697386,10.24,127.5,1.855,0.727,0.425,97.54631,-6.949,-5.465,85.5,0,109.3,13.66,-6.22,89.5
"2009-03-10 00:43:30",697387,10.51,124,3.026,0.748,0.229,97.53185,-6.986,-5.5,85.6,0,109.3,13.66,-6.26,86.0
"2009-03-10 00:44:00",697388,10.35,122,3.435,0.681,0.288,97.51564,-7.027,-5.514,85.7,0,109.3,13.66,-6.30,84.0
"2009-03-10 00:44:30",697389,10.27,124.9,3.788,0.651,0.369,97.51701,-7.023,-5.549,85.8,0,109.3,13.66,-6.30,86.9
"2009-03-10 00:45:00",697390,10.38,126.5,2.686,0.633,0.367,97.50793,-7.047,-5.579,85.9,0,109.2,13.66,-6.32,88.5
"2009-03-10 00:45:30",697391,10.27,123.6,2.802,0.754,0.243,97.49093,-7.09,-5.591,86.1,0,109.2,13.67,-6.36,85.6
"2009-03-10 00:46:00",697392,10.74,123.5,3.418,0.538,0.253,97.48385,-7.108,-5.614,86.2,0,109.2,13.67,-6.38,85.5
"2009-03-10 00:46:30",697393,10.61,122.1,3.802,0.728,0.251,97.48073,-7.116,-5.635,86.3,0,109.2,13.67,-6.39,84.1
"2009-03-10 00:47:00",697394,10.66,123.2,2.028,0.752,0.3,97.46401,-7.158,-5.663,86.4,0,109.2,13.67,-6.43,85.2
"2009-03-10 00:47:30",697395,10.84,120.9,3.997,0.725,0.242,97.45041,-7.193,-5.686,86.5,0,109.2,13.67,-6.47,82.9
"2009-03-10 00:48:00",697396,10.93,118,3.579,0.833,0.192,97.44984,-7.194,-5.718,86.6,0,109.2,13.67,-6.47,80.0
"2009-03-10 00:48:30",697397,10.75,120.6,3.591,0.705,0.249,97.44644,-7.203,-5.743,86.7,0,109.2,13.67,-6.48,82.6
"2009-03-10 00:49:00",697398,10.87,122.8,2.448,0.576,0.341,97.43057,-7.243,-5.773,86.8,0,109.2,13.67,-6.52,84.8
"2009-03-10 00:49:30",697399,10.82,122,4.013,0.688,0.217,97.41866,-7.274,-5.786,87,0,109.2,13.67,-6.55,84.0
"2009-03-10 00:50:00",697400,10.75,119.6,3.801,0.679,0.21,97.41943,-7.272,-5.789,87.1,0,109.2,13.67,-6.55,81.6
"2009-03-10 00:50:30",697401,10.86,120.6,3.11,0.631,0.173,97.41898,-7.273,-5.832,87.1,0,109.2,13.67,-6.55,82.6
"2009-03-10 00:51:00",697402,10.63,119.8,3.355,0.557,0.227,97.40317,-7.313,-5.854,87.2,0,109.2,13.67,-6.59,81.8
"2009-03-10 00:51:30",697403,10.23,117.9,4.953,0.525,0.176,97.40475,-7.309,-5.864,87.3,0,109.2,13.68,-6.58,79.9
"2009-03-10 00:52:00",697404,10.32,120.5,3.816,0.519,0.169,97.4064,-7.305,-5.865,87.4,0,109.2,13.68,-6.58,82.5
"2009-03-10 00:52:30",697405,10.15,119.4,3.399,0.615,0.297,97.39874,-7.324,-5.906,87.5,0,109.2,13.68,-6.60,81.4
"2009-03-10 00:53:00",697406,10.81,121.4,3.453,0.535,0.143,97.38258,-7.366,-5.927,87.6,0,109.2,13.68,-6.64,83.4
"2009-03-10 00:53:30",697407,10.86,121.2,3.27,0.683,-0.015,97.37598,-7.382,-5.936,87.7,0,109.2,13.68,-6.66,83.2
"2009-03-10 00:54:00",697408,10.77,119.5,3.747,0.565,0.079,97.37875,-7.375,-5.964,87.8,0,109.2,13.68,-6.65,81.5
"2009-03-10 00:54:30",697409,10.52,120.4,3.43,0.581,0.081,97.37444,-7.386,-5.964,87.9,0,109.2,13.68,-6.66,82.4
"2009-03-10 00:55:00",697410,10.47,116.8,3.335,0.579,0.233,97.35998,-7.423,-5.978,88,0,109.2,13.68,-6.70,78.8
"2009-03-10 00:55:30",697411,10.56,117.1,3.814,0.664,0.079,97.34751,-7.455,-6.019,88.1,0,109.2,13.68,-6.73,79.1
"2009-03-10 00:56:00",697412,10.42,116.2,4.33,0.582,0.135,97.34693,-7.456,-6.016,88.2,0,109.2,13.68,-6.73,78.2
"2009-03-10 00:56:30",697413,10.05,112.1,3.73,0.485,0.212,97.34666,-7.457,-6.052,88.3,0,109.2,13.68,-6.73,74.1
"2009-03-10 00:57:00",697414,10.32,112.9,3.593,0.407,0.161,97.3407,-7.472,-6.053,88.4,0,109.2,13.68,-6.75,74.9
"2009-03-10 00:57:30",697415,10.44,111.6,4.071,0.528,0.415,97.33021,-7.499,-6.067,88.5,0,109.2,13.69,-6.77,73.6
"2009-03-10 00:58:00",697416,10.29,111.8,4.126,0.61,0.09,97.31434,-7.539,-6.07,88.5,0,109.2,13.68,-6.81,73.8
"2009-03-10 00:58:30",697417,10.38,113.6,3.962,0.653,-0.015,97.31292,-7.543,-6.104,88.6,0,109.2,13.69,-6.82,75.6
"2009-03-10 00:59:00",697418,10.23,115.5,3.273,0.6,0.006,97.31292,-7.543,-6.102,88.7,0,109.2,13.69,-6.82,77.5
"2009-03-10 00:59:30",697419,10.34,113.4,4.119,0.763,-0.081,97.31179,-7.546,-6.13,88.8,0,109.2,13.69,-6.82,75.4
"2009-03-10 01:00:00",697420,10,110.5,4.24,0.58,0.012,97.29874,-7.579,-6.136,88.9,0,109.2,13.69,-6.85,72.5
"2009-03-10 01:00:30",697421,9.86,110.2,3.915,0.464,0.109,97.28117,-7.623,-6.15,89,0,109.2,13.69,-6.90,72.2
"2009-03-10 01:01:00",697422,10.11,112.1,3.776,0.599,-0.012,97.27891,-7.629,-6.168,89,0,109.2,13.7,-6.90,74.1
"2009-03-10 01:01:30",697423,9.8,112.3,3.102,0.718,-0.111,97.27891,-7.629,-6.177,89.1,0,109.2,13.7,-6.90,74.3
"2009-03-10 01:02:00",697424,9.56,110.4,3.131,0.651,0.013,97.27891,-7.629,-6.18,89.2,0,109.2,13.7,-6.90,72.4
"2009-03-10 01:02:30",697425,9.64,110.1,4.225,0.566,-0.049,97.27802,-7.632,-6.205,89.2,0,109.2,13.7,-6.91,72.1
"2009-03-10 01:03:00",697426,9.92,111.2,3.423,0.541,0.055,97.26723,-7.659,-6.212,89.3,0,109.2,13.7,-6.93,73.2
"2009-03-10 01:03:30",697427,9.93,110.8,3.987,0.508,0.024,97.26318,-7.669,-6.228,89.4,0,109.2,13.7,-6.94,72.8
"2009-03-10 01:04:00",697428,9.85,111.7,4.01,0.621,-0.129,97.25538,-7.689,-6.25,89.5,0,109.2,13.7,-6.96,73.7
"2009-03-10 01:04:30",697429,9.92,113.2,4.783,0.414,0.012,97.25895,-7.68,-6.242,89.5,0,109.2,13.7,-6.96,75.2
"2009-03-10 01:05:00",697430,9.84,115.9,2.774,0.587,-0.117,97.26088,-7.675,-6.267,89.6,0,109.2,13.7,-6.95,77.9
"2009-03-10 01:05:30",697431,9.74,111.6,3.387,0.607,-0.202,97.25974,-7.678,-6.274,89.7,0,109.2,13.7,-6.95,73.6
"2009-03-10 01:06:00",697432,9.3,113.3,4.175,0.656,-0.252,97.25095,-7.7,-6.285,89.7,0,109.2,13.7,-6.98,75.3
"2009-03-10 01:06:30",697433,9.26,112.8,5.003,0.566,-0.202,97.24099,-7.726,-6.305,89.8,0,109.2,13.7,-7.00,74.8
"2009-03-10 01:07:00",697434,9.11,111.7,3.14,0.606,-0.016,97.23238,-7.748,-6.298,89.8,0,109.2,13.7,-7.02,73.7
"2009-03-10 01:07:30",697435,8.52,109.9,3.73,0.652,-0.15,97.23403,-7.743,-6.327,89.9,0,109.2,13.7,-7.02,71.9
"2009-03-10 01:08:00",697436,8.95,115.4,6.093,0.436,-0.196,97.23513,-7.741,-6.326,90,0,109.2,13.71,-7.02,77.4
"2009-03-10 01:08:30",697437,9.21,118.8,4.525,0.419,-0.362,97.23569,-7.739,-6.344,90,0,109.2,13.71,-7.01,80.8
"2009-03-10 01:09:00",697438,9.19,119.4,4.192,0.338,-0.252,97.23679,-7.736,-6.352,90.1,0,109.2,13.71,-7.01,81.4
"2009-03-10 01:09:30",697439,8.93,122.1,4.324,0.397,-0.39,97.23596,-7.738,-6.349,90.2,0,109.2,13.71,-7.01,84.1
"2009-03-10 01:10:00",697440,8.79,118.2,5.12,0.393,-0.394,97.2365,-7.737,-6.333,90.2,0,109.2,13.71,-7.01,80.2
"2009-03-10 01:10:30",697441,8.4,114.8,3.724,0.551,-0.407,97.23705,-7.736,-6.382,90.3,0,109.2,13.71,-7.01,76.8
"2009-03-10 01:11:00",697442,8.78,116.1,4.108,0.533,-0.452,97.23587,-7.739,-6.349,90.3,0,109.2,13.7,-7.01,78.1
"2009-03-10 01:11:30",697443,8.85,111.9,5.177,0.439,-0.238,97.23381,-7.744,-6.367,90.4,0,109.2,13.7,-7.02,73.9
"2009-03-10 01:12:00",697444,8.71,112.1,3.904,0.501,-0.49,97.23262,-7.747,-6.38,90.4,0,109.2,13.71,-7.02,74.1
"2009-03-10 01:12:30",697445,8.51,112.6,4.866,0.646,-0.538,97.22326,-7.771,-6.396,90.5,0,109.2,13.71,-7.05,74.6
"2009-03-10 01:13:00",697446,8.26,109,4.377,0.241,-0.134,97.21079,-7.803,-6.396,90.5,0,109.2,13.71,-7.08,71.0
"2009-03-10 01:13:30",697447,8.15,109.2,3.828,0.531,-0.259,97.20994,-7.805,-6.388,90.6,0,109.2,13.71,-7.08,71.2
"2009-03-10 01:14:00",697448,8.01,111.7,3.399,0.659,-0.568,97.20994,-7.805,-6.396,90.6,0,109.2,13.71,-7.08,73.7
"2009-03-10 01:14:30",697449,8.2,109.3,3.134,0.627,-0.485,97.20994,-7.805,-6.414,90.6,0,109.2,13.71,-7.08,71.3
"2009-03-10 01:15:00",697450,8.06,110.2,2.716,0.543,-0.547,97.20994,-7.805,-6.412,90.7,0,109.2,13.71,-7.08,72.2
"2009-03-10 01:15:30",697451,8.2,113.7,4.086,0.556,-0.799,97.20994,-7.805,-6.414,90.7,0,109.1,13.72,-7.08,75.7
"2009-03-10 01:16:00",697452,7.99,112.5,4.21,0.557,-0.701,97.20994,-7.805,-6.402,90.7,0,109.1,13.72,-7.08,74.5
"2009-03-10 01:16:30",697453,7.791,111.1,3.887,0.62,-0.658,97.20994,-7.805,-6.433,90.8,0,109.1,13.72,-7.08,73.1
"2009-03-10 01:17:00",697454,8.17,112.7,4.174,0.306,-0.628,97.20994,-7.805,-6.432,90.8,0,109.1,13.72,-7.08,74.7
"2009-03-10 01:17:30",697455,7.852,112.1,3.917,0.501,-0.772,97.20994,-7.805,-6.442,90.9,0,109.1,13.72,-7.08,74.1
"2009-03-10 01:18:00",697456,7.841,113.8,4.199,0.507,-0.795,97.21021,-7.804,-6.417,90.9,0,109.1,13.72,-7.08,75.8
"2009-03-10 01:18:30",697457,7.939,113.9,3.749,0.511,-0.806,97.20766,-7.81,-6.43,90.9,0,109.1,13.72,-7.09,75.9
"2009-03-10 01:19:00",697458,7.984,115.7,3.54,0.518,-0.815,97.20168,-7.826,-6.436,90.9,0,109.1,13.73,-7.10,77.7
"2009-03-10 01:19:30",697459,7.723,114.3,4.417,0.485,-0.84,97.19772,-7.836,-6.432,90.9,0,109.2,13.73,-7.11,76.3
"2009-03-10 01:20:00",697460,7.607,113.5,4.037,0.534,-0.859,97.18809,-7.86,-6.431,91,0,109.1,13.73,-7.14,75.5
"2009-03-10 01:20:30",697461,7.441,114.1,4.728,0.54,-0.877,97.18324,-7.873,-6.442,91,0,109.1,13.73,-7.15,76.1
"2009-03-10 01:21:00",697462,7.602,116,4.57,0.355,-0.767,97.17898,-7.883,-6.434,91,0,109.1,13.73,-7.16,78.0
"2009-03-10 01:21:30",697463,7.555,116.1,3.73,0.544,-1.269,97.17839,-7.885,-6.46,91.1,0,109.2,13.73,-7.16,78.1
"2009-03-10 01:22:00",697464,7.763,117.4,4.774,0.339,-0.926,97.18114,-7.878,-6.425,91.1,0,109.1,13.73,-7.15,79.4
"2009-03-10 01:22:30",697465,7.685,126.5,4.444,0.354,-1.106,97.18334,-7.872,-6.46,91.1,0,109.1,13.73,-7.15,88.5
"2009-03-10 01:23:00",697466,7.372,122.8,4.485,0.65,-1.026,97.18941,-7.857,-6.466,91.1,0,109.1,13.73,-7.13,84.8
"2009-03-10 01:23:30",697467,7.12,118,3.367,0.644,-1.171,97.19189,-7.851,-6.455,91.1,0,109.1,13.73,-7.13,80.0
"2009-03-10 01:24:00",697468,7.543,118.7,5.254,0.548,-1.105,97.19685,-7.838,-6.45,91.2,0,109.1,13.73,-7.11,80.7
"2009-03-10 01:24:30",697469,7.377,120.9,4.288,0.441,-1.106,97.19823,-7.834,-6.452,91.2,0,109.1,13.73,-7.11,82.9
"2009-03-10 01:25:00",697470,7.399,121.8,3.83,0.406,-1.093,97.20016,-7.83,-6.461,91.2,0,109.1,13.73,-7.11,83.8
"2009-03-10 01:25:30",697471,7.067,119,4.168,0.57,-1.207,97.20126,-7.827,-6.464,91.2,0,109.1,13.73,-7.10,81.0
"2009-03-10 01:26:00",697472,7.026,120.5,4.988,0.571,-1.267,97.20181,-7.825,-6.466,91.3,0,109.1,13.73,-7.10,82.5
"2009-03-10 01:26:30",697473,7.511,120.6,4.793,0.517,-1.273,97.20098,-7.827,-6.469,91.3,0,109.1,13.73,-7.10,82.6
"2009-03-10 01:27:00",697474,7.347,118.5,4.433,0.497,-1.004,97.2021,-7.825,-6.473,91.3,0,109.1,13.73,-7.10,80.5
"2009-03-10 01:27:30",697475,7.24,118.2,4.741,0.524,-1.104,97.20264,-7.823,-6.488,91.3,0,109.1,13.73,-7.10,80.2
"2009-03-10 01:28:00",697476,7.265,121.5,4.376,0.597,-1.168,97.2021,-7.825,-6.451,91.3,0,109.1,13.73,-7.10,83.5
"2009-03-10 01:28:30",697477,7.152,122.9,5.539,0.518,-1.137,97.20181,-7.825,-6.467,91.4,0,109.1,13.73,-7.10,84.9
"2009-03-10 01:29:00",697478,7.46,126.2,3.933,0.227,-1.019,97.19955,-7.831,-6.472,91.4,0,109.1,13.73,-7.11,88.2
"2009-03-10 01:29:30",697479,7.325,126.6,4.163,0.502,-1.284,97.19502,-7.843,-6.459,91.4,0,109.1,13.73,-7.12,88.6
"2009-03-10 01:30:00",697480,7.255,127.2,4.235,0.379,-1.185,97.19131,-7.852,-6.476,91.4,0,109.1,13.73,-7.13,89.2
"2009-03-10 01:30:30",697481,6.767,131.6,4.142,0.625,-1.239,97.18735,-7.862,-6.47,91.4,0,109.1,13.73,-7.14,93.6
"2009-03-10 01:31:00",697482,6.548,130.2,3.767,0.356,-1.062,97.18588,-7.866,-6.476,91.4,0,109.1,13.73,-7.14,92.2
"2009-03-10 01:31:30",697483,6.751,127.1,4.766,0.52,-1.374,97.17536,-7.893,-6.5,91.4,0,109.1,13.73,-7.17,89.1
"2009-03-10 01:32:00",697484,6.485,133.4,5.079,0.408,-1.252,97.17111,-7.903,-6.486,91.4,0,109.1,13.73,-7.18,95.4
"2009-03-10 01:32:30",697485,6.377,132.4,5.623,0.398,-1.342,97.17301,-7.899,-6.522,91.4,0,109.1,13.74,-7.17,94.4
"2009-03-10 01:33:00",697486,6.477,125.9,4.872,0.345,-1.154,97.17384,-7.897,-6.522,91.4,0,109.1,13.74,-7.17,87.9
"2009-03-10 01:33:30",697487,6.517,134.8,5.694,0.52,-1.368,97.17384,-7.897,-6.515,91.4,0,109.1,13.74,-7.17,96.8
"2009-03-10 01:34:00",697488,6.372,135.9,3.912,0.541,-1.426,97.17329,-7.898,-6.523,91.5,0,109.1,13.74,-7.17,97.9
"2009-03-10 01:34:30",697489,6.578,136.5,4.112,0.451,-1.409,97.17467,-7.894,-6.515,91.5,0,109.1,13.74,-7.17,98.5
"2009-03-10 01:35:00",697490,6.66,131.6,4.297,0.49,-1.184,97.1744,-7.895,-6.525,91.5,0,109.1,13.74,-7.17,93.6
"2009-03-10 01:35:30",697491,6.75,129.2,4.797,0.53,-1.43,97.17467,-7.894,-6.552,91.5,0,109.1,13.74,-7.17,91.2
"2009-03-10 01:36:00",697492,6.797,135.8,5.225,0.503,-1.499,97.17494,-7.894,-6.54,91.5,0,109.1,13.74,-7.17,97.8
"2009-03-10 01:36:30",697493,6.737,138.3,4.218,0.508,-1.43,97.17494,-7.894,-6.55,91.5,0,109.1,13.74,-7.17,100.3
"2009-03-10 01:37:00",697494,6.51,137.3,4.385,0.372,-1.141,97.17466,-7.894,-6.559,91.5,0,109.1,13.74,-7.17,99.3
"2009-03-10 01:37:30",697495,6.738,134.7,4.227,0.296,-1.14,97.17466,-7.894,-6.536,91.5,0,109.2,13.74,-7.17,96.7
"2009-03-10 01:38:00",697496,6.452,137.8,4.98,0.623,-1.145,97.1741,-7.896,-6.527,91.5,0,109.1,13.74,-7.17,99.8
"2009-03-10 01:38:30",697497,6.635,137.2,4.509,0.557,-1.355,97.17098,-7.904,-6.544,91.5,0,109.1,13.74,-7.18,99.2
"2009-03-10 01:39:00",697498,6.626,133.1,4.113,0.752,-1.247,97.16729,-7.913,-6.563,91.5,0,109.1,13.75,-7.19,95.1
"2009-03-10 01:39:30",697499,6.723,136.9,3.92,0.52,-1.197,97.16757,-7.912,-6.551,91.5,0,109.1,13.75,-7.19,98.9
"2009-03-10 01:40:00",697500,6.645,140.1,4.019,0.524,-1.158,97.16247,-7.925,-6.548,91.6,0,109.1,13.75,-7.20,102.1
"2009-03-10 01:40:30",697501,6.537,139.7,4.44,0.554,-1.151,97.15764,-7.938,-6.564,91.6,0,109.1,13.75,-7.21,101.7
"2009-03-10 01:41:00",697502,6.787,142.4,4.413,0.454,-0.975,97.15736,-7.938,-6.549,91.6,0,109.1,13.74,-7.21,104.4
"2009-03-10 01:41:30",697503,6.467,144.2,3.884,0.577,-1.088,97.15508,-7.944,-6.55,91.6,0,109.1,13.75,-7.22,106.2
"2009-03-10 01:42:00",697504,6.621,146.4,5.032,0.443,-1.047,97.15678,-7.94,-6.553,91.6,0,109.1,13.75,-7.22,108.4
"2009-03-10 01:42:30",697505,6.756,150,4.139,0.588,-1.022,97.15508,-7.944,-6.552,91.6,0,109.1,13.75,-7.22,112.0
"2009-03-10 01:43:00",697506,6.121,149.3,4.306,0.698,-0.885,97.15565,-7.943,-6.561,91.6,0,109.1,13.75,-7.22,111.3
"2009-03-10 01:43:30",697507,6.251,147,5.125,0.486,-1.064,97.15623,-7.941,-6.568,91.6,0,109.2,13.75,-7.22,109.0
"2009-03-10 01:44:00",697508,6.14,146,6.694,0.62,-1.07,97.15707,-7.939,-6.563,91.6,0,109.1,13.75,-7.22,108.0
"2009-03-10 01:44:30",697509,6.389,138.8,5.373,0.512,-1.143,97.15651,-7.941,-6.576,91.6,0,109.1,13.75,-7.22,100.8
"2009-03-10 01:45:00",697510,5.961,135.6,5.999,0.716,-1.045,97.15764,-7.938,-6.561,91.6,0,109.1,13.75,-7.21,97.6
"2009-03-10 01:45:30",697511,5.827,133.6,4.48,0.342,-1.279,97.15594,-7.942,-6.566,91.6,0,109.1,13.75,-7.22,95.6
"2009-03-10 01:46:00",697512,5.681,139.1,5.19,0.554,-1.247,97.15736,-7.938,-6.549,91.7,0,109.1,13.75,-7.21,101.1
"2009-03-10 01:46:30",697513,5.407,138.7,5.168,0.489,-1.441,97.15736,-7.938,-6.559,91.7,0,109.1,13.75,-7.21,100.7
"2009-03-10 01:47:00",697514,5.669,130.4,4.417,0.617,-1.566,97.15821,-7.936,-6.573,91.7,0,109.1,13.75,-7.21,92.4
"2009-03-10 01:47:30",697515,5.965,133.9,4.707,0.512,-1.72,97.15849,-7.936,-6.563,91.7,0,109.1,13.75,-7.21,95.9